Location: Muenchen
(48.1800°N, 11.5800°E)
Time: 23:39:21
(UTC+02:00)

Tiros 1 - Visible Passes

Search period start: 31 August 2016 00:00
Search period end: 10 September 2016 00:00
Orbit: 631 x 664 km, 48.4° (Epoch: 30 August)

Date Brightness Start Highest point End Pass type
(mag) Time Alt. Az. Time Alt. Az. Time Alt. Az.
01 Sep 9.5 04:51:20 10° S 04:53:47 14° SE 04:56:14 10° ESE visible
02 Sep 8.6 05:15:58 11° SSW 05:19:39 27° SE 05:23:32 10° E visible
03 Sep 9.4 04:03:36 13° SE 04:04:17 13° SE 04:06:31 10° ESE visible
03 Sep 7.8 05:41:18 10° SW 05:45:41 46° SSE 05:50:07 10° E visible
04 Sep 8.5 04:28:53 23° S 04:30:08 26° SE 04:33:57 10° E visible
05 Sep 9.7 03:16:26 11° ESE 03:16:26 11° ESE 03:16:44 10° ESE visible
05 Sep 7.8 04:54:07 27° SSW 04:56:10 44° SSE 05:00:34 10° E visible
06 Sep 8.9 03:41:37 22° ESE 03:41:37 22° ESE 03:44:22 10° E visible
06 Sep 7.2 05:19:18 21° WSW 05:22:21 68° SSE 05:26:57 10° E visible
07 Sep 7.8 04:06:47 42° SSE 04:06:47 42° SSE 04:11:01 10° E visible
07 Sep 7.1 05:44:28 13° W 05:48:39 88° S 05:53:18 10° E visible
08 Sep 9.7 02:54:15 12° E 02:54:15 12° E 02:54:46 10° E visible
08 Sep 7.1 04:31:56 52° SW 04:32:49 66° SSE 04:37:25 10° E visible
09 Sep 9.0 03:19:23 24° E 03:19:23 24° E 03:21:27 10° E visible
09 Sep 7.0 04:57:03 33° WSW 04:59:07 86° SSE 05:03:45 10° E visible
